Location: Gravenhurst
(44.9196°N, 79.3742°W)
Time: 09:46:32
(UTC-05:00)

Envisat - Pass Details

Date: 22 October 2019
Orbit: 764 x 766 km, 98.1° (Epoch: 13 November)

Event Time Altitude Azimuth Distance (km) Brightness Sun altitude
Rises 20:35:51 0° 208° (SSW) 3,220 6.5 -24.5°
Reaches altitude 10° 20:38:53 10° 228° (SW) 2,299 5.9 -25.0°
Maximum altitude 20:42:16 18° 270° (W) 1,826 5.8 -25.6°
Drops below altitude 10° 20:45:39 10° 312° (NW) 2,310 6.2 -26.2°
Sets 20:48:44 0° 331° (NNW) 3,242 6.8 -26.7°
